Theta_e
335 336 337 338 338 335 334 333 331 331 330 327 320 314 310 309 308 309 309 309 310 310 311 311 310 311 312 311 311 310 309 310 310 310 311 312 312 312 312 313 313 313 312 312 313 314 320 327 329 330 330 331 333 333 333 334 335 335 334 333 332 332
337 339 339 338 339 336 333 331 331 331 331 327 320 314 310 308 309 309 310 313 315 317 321 319 315 312 312 311 311 310 310 310 310 310 311 311 311 311 311 311 311 311 313 316 321 324 328 332 331 332 333 333 334 333 334 335 335 335 334 333 333 331
339 340 340 339 339 337 333 331 332 332 331 327 320 314 310 309 310 310 314 321 324 329 333 331 323 317 314 312 311 311 310 310 310 310 311 311 311 310 311 312 311 314 323 327 330 331 332 333 333 333 334 334 333 333 334 335 335 335 334 334 332 330
340 340 340 340 340 337 333 333 334 333 332 327 320 315 310 311 315 318 323 328 332 334 337 336 330 327 323 316 313 311 311 310 310 310 311 311 312 312 316 323 321 323 331 332 333 334 334 333 333 335 335 336 334 333 333 334 335 335 334 333 332 330
341 341 340 340 339 337 336 338 338 337 333 327 323 318 314 320 327 331 333 332 334 334 336 335 332 333 333 327 322 318 315 313 312 313 315 316 318 322 327 333 332 332 334 333 334 335 334 334 334 336 335 335 334 333 333 334 335 335 334 332 331 330
341 341 341 340 340 338 339 341 341 340 336 331 332 327 326 333 334 333 334 332 333 334 336 336 335 336 336 335 332 330 327 324 322 323 327 328 329 333 335 335 335 335 336 335 335 335 335 334 334 336 335 335 334 333 334 335 336 335 333 331 330 330
341 342 342 341 340 339 340 341 341 340 337 335 336 333 332 334 329 328 331 331 332 334 337 337 337 337 336 336 336 335 335 334 333 332 334 336 335 336 336 335 335 336 335 335 336 335 337 335 333 335 335 335 334 334 335 335 336 333 331 331 330 329
341 342 342 341 340 340 340 341 341 339 336 336 336 334 334 330 322 325 330 331 334 336 338 338 337 336 335 336 337 337 336 336 337 335 336 337 336 336 337 336 334 334 333 335 336 335 336 336 334 335 335 335 334 335 335 336 336 333 332 331 328 326
341 342 341 341 340 340 340 340 340 338 336 337 335 333 333 329 323 326 329 331 336 337 338 337 337 337 336 336 336 336 336 336 337 337 337 337 337 337 337 337 335 334 333 335 336 334 335 336 335 334 334 335 334 335 335 336 336 333 333 331 328 326
340 341 340 340 340 340 340 340 339 337 337 336 336 333 329 326 326 330 331 332 337 338 336 336 337 336 336 335 334 333 332 333 335 336 335 334 336 337 337 337 335 335 335 335 335 335 335 335 334 334 334 334 334 334 334 334 333 332 333 331 329 328
340 340 340 339 340 340 340 340 337 336 337 334 333 332 326 327 332 335 336 335 337 337 335 337 337 335 335 334 332 332 331 331 334 336 335 333 334 335 335 336 335 336 336 335 336 336 335 335 335 334 334 333 333 334 333 332 332 332 332 330 329 328
339 339 339 339 339 339 339 339 335 336 337 331 327 325 324 332 337 337 338 337 337 336 336 336 336 336 336 335 333 334 333 332 334 335 335 336 335 334 334 335 336 336 335 335 336 335 335 335 334 334 333 333 332 332 332 331 331 331 331 329 328 327
338 337 338 340 339 337 338 337 335 337 336 328 323 322 326 334 337 337 337 337 335 334 336 335 334 335 335 334 334 334 333 332 333 332 332 332 333 335 336 335 336 336 335 335 335 334 333 334 333 332 332 332 331 330 330 329 329 329 329 328 327 326
338 336 337 339 338 335 336 336 334 336 333 324 323 327 332 335 336 335 334 334 333 333 335 334 333 333 333 332 333 332 332 332 331 329 329 328 330 335 336 336 336 336 335 336 335 332 332 333 333 332 331 330 329 328 327 326 326 326 327 327 327 326
337 336 336 336 335 334 336 335 333 336 331 324 327 332 335 335 334 335 334 334 334 334 335 334 333 334 332 331 332 330 329 331 329 328 329 330 334 335 335 335 334 333 334 335 334 332 333 332 331 331 330 328 327 326 326 325 324 324 323 323 325 326
336 334 333 333 334 334 335 334 333 335 330 326 330 333 334 333 333 336 336 335 335 334 334 333 334 334 332 331 332 329 326 329 329 328 328 331 335 335 334 333 330 329 332 334 333 332 333 332 331 330 328 327 325 324 324 324 324 323 322 322 323 324
335 332 331 332 334 334 334 333 334 335 329 327 331 332 332 332 334 336 335 335 335 335 334 333 333 334 332 332 333 330 329 331 331 331 332 333 334 332 332 331 328 326 328 332 333 332 332 331 331 330 328 326 324 323 322 323 323 323 323 323 323 323
332 328 329 331 333 333 334 333 333 333 328 327 331 332 332 332 333 333 333 335 335 335 334 333 332 332 332 332 333 332 332 333 334 334 334 333 332 330 329 329 327 326 327 330 332 332 332 331 330 329 327 323 322 322 322 322 322 322 322 323 323 322
331 328 329 332 333 334 335 333 333 333 329 329 330 331 332 330 331 332 334 336 334 334 334 333 331 329 331 332 332 333 333 334 334 334 334 332 332 330 327 327 327 327 327 329 331 332 331 331 329 327 324 320 320 321 322 322 322 322 322 322 320 316
331 332 333 334 335 336 337 335 335 336 332 330 330 329 330 331 333 335 335 334 334 334 334 335 334 331 332 332 332 332 333 334 333 331 331 330 331 329 326 327 328 327 328 328 329 332 331 330 329 326 323 320 318 321 322 322 321 322 321 318 313 308
333 335 335 336 337 337 338 337 337 337 334 331 329 328 331 334 335 335 335 333 333 334 334 335 336 335 334 334 333 333 333 332 330 329 328 328 329 328 326 328 328 327 329 329 328 330 331 329 328 325 324 321 318 321 321 320 321 321 316 310 305 302
334 336 336 337 338 338 339 339 338 338 334 330 328 328 333 335 336 336 335 334 333 334 334 335 336 335 334 334 333 332 331 330 329 329 327 327 327 326 327 328 328 327 328 329 328 330 330 328 327 325 325 324 320 322 322 320 320 316 309 304 301 300
334 337 338 338 339 338 339 339 339 337 334 330 329 331 336 337 336 335 335 334 334 334 334 335 334 333 332 332 332 331 330 328 326 326 326 327 327 326 327 328 328 328 324 325 328 330 328 326 327 326 325 325 324 324 323 321 317 309 303 301 300 300
335 338 339 339 340 340 340 340 339 336 334 333 332 334 337 337 335 335 334 334 334 334 334 333 332 332 331 331 330 330 328 326 324 323 325 328 327 325 327 327 328 326 321 321 326 329 327 324 326 328 327 326 326 325 323 323 318 306 301 300 299 300
337 337 339 340 340 339 339 339 337 335 334 334 334 335 336 336 335 334 333 333 334 334 333 332 332 331 329 329 329 327 325 324 323 322 324 326 326 324 325 325 323 322 322 322 324 326 325 323 324 327 328 327 327 326 324 324 319 310 307 306 302 300
339 338 339 339 338 337 337 336 336 335 334 333 334 335 335 335 334 333 333 333 333 333 332 332 331 330 329 328 327 325 324 323 323 323 324 324 322 322 323 320 317 317 321 323 322 318 316 318 320 321 325 328 326 325 323 320 318 314 311 309 308 306
340 339 339 338 338 336 333 333 335 336 333 332 335 336 335 334 333 333 332 332 332 331 331 331 331 330 328 328 326 324 323 324 323 323 323 321 320 319 319 317 315 315 318 319 317 312 307 309 313 315 321 326 323 321 322 319 317 316 313 311 312 312
340 340 338 338 338 335 332 332 334 334 333 333 334 334 334 333 332 332 332 332 332 331 331 331 330 329 327 327 326 324 324 323 323 321 319 319 318 318 317 315 313 313 313 313 311 310 307 305 307 308 311 316 315 315 320 321 318 316 315 314 313 313
340 338 337 337 337 334 333 334 334 333 333 334 334 334 334 333 332 332 331 332 332 332 331 331 329 327 326 326 325 324 324 323 321 320 319 319 317 316 314 312 311 309 308 307 307 308 307 304 304 304 304 305 306 307 311 314 316 315 313 313 314 314
340 339 337 337 336 335 334 335 334 334 334 334 335 334 334 333 332 332 332 332 332 331 331 330 328 326 325 325 325 324 323 322 321 320 319 318 314 312 311 309 308 306 304 303 304 305 304 303 302 302 302 303 304 306 307 306 309 311 311 311 311 311
340 339 338 337 336 335 335 335 336 336 334 335 336 335 334 333 332 332 332 332 332 331 330 328 327 326 325 324 324 324 323 322 320 319 318 316 312 309 308 306 304 303 303 302 302 303 302 302 302 302 302 303 304 307 307 305 304 307 310 312 311 310
339 339 339 338 336 335 336 336 337 336 335 335 335 335 335 333 333 333 332 332 331 331 329 327 326 326 325 324 324 324 323 322 319 317 316 313 310 308 306 304 302 302 302 302 302 302 302 302 301 301 302 302 303 304 305 304 303 304 307 310 311 311
339 339 339 339 337 336 337 337 336 335 335 335 335 335 334 333 333 332 332 331 331 330 328 326 325 325 325 324 324 323 321 320 318 316 314 311 307 305 303 302 302 302 302 302 302 302 301 301 301 301 301 301 301 302 302 301 301 302 303 306 309 310
339 338 338 338 338 338 338 336 335 335 336 335 335 334 334 333 333 332 330 331 330 329 327 325 324 324 324 323 322 322 320 318 317 314 310 307 304 303 302 301 301 301 301 301 301 301 301 301 300 300 300 300 300 299 300 299 299 300 299 300 304 306
339 338 337 338 338 339 338 336 335 336 336 336 334 334 334 334 333 331 329 329 329 327 326 325 324 323 323 321 320 320 319 316 314 310 306 303 302 301 301 301 301 301 301 301 301 300 300 300 300 300 300 300 299 299 299 299 299 299 299 299 300 303
339 338 337 337 338 339 337 336 336 336 336 335 334 334 334 334 332 329 328 328 327 326 325 324 323 322 322 320 319 319 317 313 309 305 302 301 301 301 301 301 301 301 300 300 300 300 300 299 299 299 299 299 298 298 298 299 299 298 298 298 298 300
339 338 338 337 338 338 336 336 336 336 335 334 334 334 334 333 331 329 328 328 327 326 325 324 322 322 321 319 318 316 312 308 304 301 300 300 300 300 300 300 300 300 300 300 300 300 299 299 299 299 299 298 298 298 298 298 298 298 298 298 298 298
Wind_Speed
16 14 13 12 11 10 10 9 6 5 4 3 3 3 5 7 8 7 8 7 7 8 7 7 5 5 5 5 5 5 6 7 7 8 8 8 7 6 5 4 3 2 1 1 2 2 4 7 9 11 11 9 7 2 2 5 4 2 5 6 5 5
16 14 13 12 11 10 9 9 7 5 4 4 4 4 6 7 8 8 8 7 7 7 7 6 5 5 5 4 4 4 4 5 6 6 7 6 5 4 3 2 2 1 2 3 4 4 3 6 8 9 10 8 3 2 4 4 1 3 6 6 4 4
15 15 14 13 11 10 9 9 9 7 6 6 5 5 7 8 8 8 9 7 5 6 3 3 5 5 5 4 4 3 3 3 4 5 5 5 5 5 5 4 4 4 5 5 6 6 5 5 6 6 8 5 4 5 5 3 3 4 5 5 4 4
15 16 15 14 12 10 9 9 9 8 7 7 7 7 8 9 8 8 6 5 6 6 3 1 2 3 4 3 4 3 3 3 3 4 4 5 6 6 6 6 6 5 4 3 4 7 7 6 5 4 4 2 5 7 4 2 3 4 4 4 4 4
15 17 16 14 12 11 10 9 8 8 8 7 7 7 8 7 5 6 4 3 5 5 3 2 2 1 2 2 3 3 2 3 3 4 4 5 6 7 6 5 5 4 1 1 2 4 3 4 3 2 2 4 4 4 2 2 4 5 5 5 4 4
16 16 16 14 12 11 11 10 8 8 7 6 4 5 7 8 7 9 9 6 6 4 3 4 3 2 2 2 2 2 3 4 4 5 5 4 4 4 4 5 4 4 1 1 1 1 2 3 3 1 2 2 3 3 3 4 4 6 6 5 5 5
17 16 15 14 13 12 11 11 10 8 6 8 7 8 7 10 11 11 10 7 5 5 5 4 3 3 3 2 2 3 4 5 5 5 4 3 4 2 2 3 3 3 3 3 3 0 1 2 2 0 1 2 4 5 4 4 4 7 7 6 6 5
17 17 15 14 14 13 13 13 12 8 7 9 12 11 9 10 11 10 8 6 5 6 5 4 4 5 5 4 4 6 6 5 5 6 5 3 4 3 1 2 3 5 5 5 3 2 2 1 1 3 3 1 4 5 3 1 4 10 9 7 7 7
18 18 17 15 15 14 15 15 13 9 10 12 12 10 11 10 10 10 8 6 6 6 6 6 6 5 6 6 6 6 6 5 6 7 6 5 5 4 3 2 3 4 5 5 2 2 3 1 2 4 2 1 3 5 3 2 4 11 9 8 9 11
18 18 18 16 15 16 16 15 12 10 12 14 12 9 11 10 9 8 7 6 6 6 6 7 6 6 6 6 6 6 6 7 7 6 6 7 6 6 6 5 5 5 5 5 3 2 1 1 3 3 1 3 5 6 4 4 6 10 9 9 12 12
19 18 18 17 16 16 14 13 11 12 12 13 14 13 11 10 8 7 7 6 5 5 6 7 7 7 8 6 5 6 8 9 9 8 7 8 7 7 8 8 6 6 5 4 4 4 3 4 5 4 3 4 7 6 7 6 6 8 10 9 10 11
20 19 19 17 17 16 14 12 11 12 12 11 12 13 12 11 9 8 7 5 5 6 6 6 6 6 7 6 6 7 9 9 8 9 8 6 6 7 8 7 7 6 5 5 5 5 6 6 6 7 7 6 8 7 7 9 9 6 7 8 6 6
21 20 20 18 17 17 14 12 12 13 13 11 11 12 12 11 10 9 7 5 6 7 5 6 5 6 6 6 6 6 7 7 7 7 6 3 4 6 6 5 6 5 5 4 3 4 5 5 4 5 6 6 8 7 5 6 7 8 5 4 3 3
21 20 21 20 19 17 14 13 13 13 13 11 11 11 10 10 10 8 7 6 7 6 5 6 5 5 6 5 5 6 6 5 6 6 6 6 6 4 3 5 6 6 7 5 2 3 5 7 6 4 4 4 5 5 5 5 4 4 6 5 3 1
23 21 21 21 19 17 15 14 13 13 13 12 12 11 11 11 9 7 6 6 7 7 6 5 5 6 6 6 6 7 6 5 6 6 7 7 4 1 1 4 6 8 10 7 3 5 5 7 7 6 4 4 4 5 5 7 7 4 3 6 6 5
24 23 23 20 19 17 16 15 13 14 15 13 12 11 11 10 7 7 7 7 7 7 7 6 5 6 6 7 7 7 6 7 8 8 7 6 3 3 5 5 6 8 10 9 6 4 6 7 7 6 5 5 5 6 6 7 8 6 4 6 6 6
23 24 24 20 19 18 16 15 14 15 15 14 12 11 11 10 9 10 10 9 8 6 7 6 5 7 7 8 8 7 7 8 9 8 7 8 8 9 9 7 7 7 8 11 9 4 8 6 6 7 8 8 6 7 6 5 6 6 6 7 8 7
24 26 25 21 20 19 17 17 17 16 15 13 12 12 12 12 11 11 10 9 9 7 7 5 5 6 8 9 9 9 8 8 8 8 8 7 6 8 8 8 7 5 7 11 11 8 7 5 6 7 8 8 7 7 5 3 4 4 5 5 6 7
26 28 25 23 22 20 19 18 18 16 14 14 14 13 13 12 11 11 10 9 9 7 6 5 6 7 8 9 9 9 9 9 8 10 10 8 4 8 6 7 7 5 7 10 11 10 8 8 7 6 5 4 4 5 3 2 3 4 5 4 5 5
28 28 26 24 23 21 20 19 17 16 15 15 15 14 13 12 11 11 10 9 8 7 7 5 7 11 12 11 11 10 10 11 11 11 11 10 10 10 7 6 7 4 5 7 10 11 10 10 6 6 5 6 3 2 1 2 3 4 4 4 3 3
29 27 26 25 24 23 21 20 18 17 17 17 16 15 14 12 11 11 10 8 7 8 8 7 6 10 11 11 12 12 12 13 10 9 10 10 12 12 7 6 7 6 7 6 11 12 10 8 5 5 4 6 3 3 2 2 3 3 3 2 2 2
30 28 26 25 24 23 21 20 18 17 17 17 16 15 13 12 12 10 9 8 8 9 8 9 9 9 10 11 12 11 11 10 8 8 8 7 9 9 6 4 5 7 9 9 12 11 7 6 5 3 3 5 2 2 4 3 2 2 1 1 1 2
31 28 26 24 24 24 22 19 18 17 17 16 16 15 13 14 14 13 12 10 10 11 10 11 11 8 8 9 10 10 9 8 7 8 6 2 6 6 8 6 5 6 7 10 14 11 9 7 3 1 2 3 3 2 2 3 2 1 1 0 1 3
30 28 27 25 25 25 22 19 18 17 17 17 17 17 16 16 16 15 14 13 12 12 12 12 9 6 6 8 9 9 8 7 6 6 7 6 8 6 9 9 8 7 5 9 15 14 11 10 7 7 6 5 6 5 4 4 3 3 2 1 2 4
29 29 28 27 27 27 24 21 20 20 21 21 19 20 20 18 16 15 15 14 13 12 13 11 7 6 8 8 9 8 6 5 4 4 6 9 8 4 6 7 9 11 10 9 14 15 13 12 11 11 9 6 5 3 3 3 3 3 1 0 2 4
30 30 29 28 28 27 27 26 25 25 25 24 22 21 21 19 17 16 16 16 15 13 12 10 8 8 9 8 8 7 5 4 3 3 4 6 6 6 6 7 9 12 13 10 10 11 12 13 14 13 10 8 5 2 1 2 2 3 3 3 5 4
31 31 29 29 27 25 27 29 28 26 25 26 24 19 18 19 17 16 16 17 16 12 9 9 9 9 9 8 7 6 4 4 2 3 4 5 7 9 9 10 11 13 14 12 8 6 8 11 13 14 13 11 8 4 4 5 4 4 4 5 7 7
30 30 30 29 27 25 28 30 28 26 25 25 23 18 17 18 16 16 17 17 13 9 8 10 11 9 7 7 7 6 4 3 3 4 6 8 10 10 10 10 11 11 13 13 10 8 8 9 9 10 10 11 9 7 8 9 7 5 3 5 9 9
28 29 31 29 26 27 28 28 27 27 24 21 19 17 17 17 17 17 17 15 11 10 12 13 12 7 3 4 5 6 5 5 5 7 9 10 10 10 10 10 11 10 10 11 11 11 11 10 9 8 7 6 5 5 8 10 9 8 3 4 8 10
27 28 30 28 27 28 28 27 26 25 22 20 19 18 18 18 19 18 16 14 13 14 16 15 11 5 3 5 7 6 7 7 8 10 11 10 10 11 11 11 11 10 10 10 10 10 11 11 10 10 10 8 7 6 6 8 9 9 4 1 3 6
29 28 28 27 28 29 28 27 25 23 22 23 23 21 20 19 19 18 17 16 15 16 15 14 10 10 10 9 12 10 8 8 10 11 12 11 11 12 12 11 10 10 10 11 10 9 9 10 10 11 11 11 11 9 8 8 8 9 6 3 1 0
31 30 28 27 28 29 29 27 25 24 24 25 25 23 21 19 19 19 19 18 18 17 16 13 11 11 15 13 11 10 10 10 11 13 13 12 12 12 12 12 11 11 11 12 11 10 10 10 10 11 11 10 10 10 9 8 9 9 8 6 4 2
34 33 30 28 29 29 29 27 26 25 26 26 25 23 21 19 19 20 20 19 19 19 16 12 10 11 12 10 7 8 11 12 13 14 14 12 12 13 12 12 12 12 12 11 11 11 11 11 11 11 10 10 9 9 8 7 8 8 8 8 8 6
35 34 31 30 30 29 29 28 26 26 26 27 25 23 21 19 19 20 20 20 19 19 15 11 10 11 9 7 7 8 11 14 14 13 13 13 13 13 12 12 12 12 12 11 11 10 10 10 10 10 10 9 9 8 7 7 6 6 6 6 7 7
35 34 32 32 31 29 29 28 27 27 27 27 25 22 20 19 19 21 20 19 19 16 12 10 9 9 7 7 8 8 10 13 13 13 13 13 14 14 14 13 13 12 12 11 11 10 10 9 9 9 9 9 8 8 7 6 5 5 5 5 5 5
35 34 32 33 32 31 30 29 28 28 27 26 24 22 20 19 20 20 19 19 17 13 11 9 7 8 8 10 10 9 9 12 12 13 13 14 14 14 14 13 13 13 12 12 11 10 10 10 9 9 9 8 7 6 6 5 4 5 5 6 6 6
36 34 33 32 32 32 31 30 29 28 27 26 24 22 21 20 20 19 17 17 14 12 11 10 9 11 10 10 10 9 10 12 13 14 15 15 15 15 14 14 14 14 13 12 12 11 11 11 10 9 9 8 7 6 6 5 5 5 6 7 6 7
Wind_Direction
148 151 157 163 161 161 157 151 157 159 175 198 197 192 174 166 158 147 133 128 128 118 99 87 81 81 91 103 119 133 148 157 163 166 167 170 175 180 187 189 189 181 126 46 32 44 61 44 35 40 48 56 59 58 37 44 37 349 291 310 344 348
154 159 163 169 169 163 161 156 160 168 177 191 198 190 176 168 153 142 131 134 134 110 87 79 81 79 81 96 108 116 136 146 151 156 156 151 152 147 147 142 118 109 79 71 63 66 62 42 38 42 51 51 28 359 29 26 331 269 288 314 345 347
164 166 170 173 175 165 168 166 167 177 182 183 190 192 173 160 148 142 132 125 111 104 91 52 79 89 87 97 105 118 129 131 141 140 140 133 126 117 106 94 92 100 91 74 55 35 5 30 44 36 46 44 350 8 14 336 277 279 302 320 337 346
173 171 173 176 176 170 174 172 175 178 180 183 181 190 176 156 135 128 125 107 108 134 188 298 86 105 95 101 106 119 122 128 148 129 127 117 110 111 100 89 87 98 93 51 32 18 354 2 21 21 25 333 341 6 8 322 284 294 320 330 335 353
180 177 176 178 175 173 176 169 182 182 177 183 180 185 168 153 127 130 174 185 148 158 190 208 186 152 112 124 108 108 122 120 124 126 133 127 123 124 124 129 119 124 163 341 14 11 334 304 321 352 310 302 344 359 351 346 319 312 324 332 338 350
184 181 179 179 175 173 175 170 188 191 175 159 171 199 155 162 186 173 192 194 163 170 190 207 213 214 191 177 135 123 160 155 148 158 156 160 169 151 155 183 163 153 173 71 59 338 262 244 254 264 303 307 348 2 350 343 320 315 326 339 350 345
181 179 179 178 177 174 173 174 187 195 168 143 174 216 179 175 192 180 185 179 171 190 199 217 220 219 208 193 212 191 191 182 176 192 180 169 196 195 204 218 187 173 171 116 117 162 317 277 228 223 20 349 7 24 5 347 314 315 341 1 3 355
177 175 176 177 178 175 173 178 190 185 152 165 191 209 193 184 185 177 186 179 186 205 202 213 212 219 210 198 219 199 196 205 197 209 206 175 186 200 202 202 183 178 162 126 125 170 193 276 348 54 62 36 32 42 12 349 307 319 348 12 8 6
178 176 178 178 175 177 178 185 196 170 157 191 207 207 196 190 187 185 192 186 204 216 200 205 210 215 212 206 214 199 197 207 197 204 204 184 181 179 160 167 194 183 154 139 155 192 185 218 43 65 62 343 90 91 38 359 309 325 348 9 7 6
183 180 181 181 174 182 184 190 198 169 175 199 199 207 202 188 189 193 197 197 213 224 207 206 209 212 220 222 221 212 208 206 202 204 200 192 186 171 169 182 196 180 149 147 150 132 144 114 74 98 100 42 79 115 97 41 359 344 354 12 9 1
189 184 182 183 180 188 187 194 194 172 195 205 194 206 199 184 193 201 208 205 209 227 220 213 214 215 210 209 217 210 203 205 203 197 189 185 182 175 177 170 169 167 148 152 157 154 159 134 99 89 108 96 89 109 129 108 55 9 359 13 15 1
196 189 181 183 183 191 191 196 183 172 208 216 204 204 186 183 199 210 213 202 212 229 229 224 223 220 201 188 200 199 199 205 195 193 195 178 174 188 188 160 151 175 174 170 173 169 167 157 139 108 99 123 125 112 129 142 132 92 29 15 12 360
204 194 181 179 186 195 194 197 182 181 216 219 206 199 184 191 200 210 211 199 228 234 233 244 238 224 207 191 196 196 200 205 193 201 205 186 206 204 186 142 139 167 158 150 174 170 151 129 131 135 121 137 148 135 131 148 158 153 120 50 28 349
202 194 181 181 190 197 195 203 192 191 217 209 198 193 189 208 207 212 215 209 236 240 238 254 243 218 211 212 211 203 199 203 207 210 191 186 216 212 147 140 161 168 143 138 150 116 119 110 105 151 180 185 168 154 144 116 103 158 180 173 154 309
197 193 185 185 191 197 199 206 195 194 210 200 198 194 196 213 211 216 222 219 234 239 239 247 241 220 217 230 218 204 202 206 212 210 200 194 200 227 189 180 189 175 141 134 112 101 144 165 159 167 193 216 191 173 169 143 125 122 190 214 210 221
198 194 187 187 190 195 202 203 192 197 206 201 202 200 202 208 198 207 219 228 237 237 240 239 230 223 222 226 213 202 206 212 209 205 206 199 189 220 221 210 208 187 152 135 118 141 199 208 206 204 220 232 197 179 178 171 177 184 225 263 269 259
196 190 186 188 192 197 201 198 192 202 208 203 204 200 205 203 193 207 218 228 240 241 241 227 208 215 212 208 210 208 209 215 209 204 203 199 212 220 212 212 218 206 170 142 127 188 229 231 233 239 249 245 209 189 187 186 208 224 245 272 293 295
187 184 186 191 195 197 199 197 196 208 210 203 203 198 204 207 202 215 220 225 236 237 237 223 201 211 198 191 202 203 205 209 203 210 211 202 242 256 223 210 225 218 178 156 145 172 210 220 235 243 249 244 208 190 194 217 244 267 281 284 290 297
181 181 186 192 196 195 196 199 201 207 205 201 205 201 205 211 210 220 221 225 237 231 223 217 197 197 194 187 194 202 202 202 205 218 210 186 222 262 234 202 225 220 176 175 169 174 196 202 217 242 262 283 231 189 178 256 290 297 293 293 291 301
180 181 186 191 193 193 193 196 200 203 199 200 205 205 208 211 212 222 225 222 228 214 193 192 180 180 190 191 196 211 214 215 224 225 212 189 196 227 232 209 229 217 172 186 175 179 209 213 230 273 300 335 325 170 136 272 289 298 299 310 305 310
180 183 188 191 192 192 191 193 198 200 198 199 202 205 209 211 213 223 227 216 212 206 183 174 165 164 173 177 190 211 218 221 225 227 226 211 208 224 231 223 232 198 168 161 160 176 212 233 267 281 308 352 35 88 10 279 268 293 311 324 307 311
182 186 189 192 193 193 192 192 196 197 198 200 203 207 212 214 214 215 217 206 201 207 188 179 185 180 177 178 189 208 221 220 208 213 232 229 225 227 212 225 232 184 170 160 163 179 205 233 273 292 357 5 37 35 344 288 265 286 288 271 294 316
184 188 190 189 192 194 192 193 196 193 193 198 203 205 207 209 209 207 208 204 200 201 199 202 202 198 199 198 201 214 229 233 218 210 205 228 264 222 181 203 215 190 182 169 172 179 188 200 221 261 316 310 264 283 301 267 262 207 196 197 353 337
186 189 190 187 190 192 189 191 192 186 186 194 200 201 201 206 209 210 210 209 209 206 211 220 218 215 226 222 215 217 223 230 234 217 175 189 246 214 178 191 189 183 166 160 177 187 197 196 177 185 206 232 246 234 221 237 233 190 168 67 25 352
188 191 193 191 193 194 190 186 182 182 189 195 200 203 204 207 210 213 214 211 210 213 221 225 221 227 235 224 213 211 217 219 231 237 189 196 222 193 171 186 179 174 161 167 193 200 209 209 196 197 197 199 218 218 219 230 213 191 169 82 353 348
189 192 195 194 197 199 193 185 181 187 194 195 199 204 206 209 210 211 213 210 208 210 217 216 209 222 231 221 207 203 214 227 226 230 216 207 201 180 181 185 180 178 173 184 207 208 211 214 216 221 212 204 209 186 159 183 198 199 210 264 292 306
191 193 196 196 198 194 185 183 186 192 197 198 200 202 206 213 214 211 212 212 211 208 207 211 213 224 235 226 209 197 205 230 239 227 225 217 205 203 203 195 192 193 190 194 203 203 203 207 218 228 228 232 242 234 185 182 200 206 221 264 282 288
193 194 198 200 197 187 182 186 191 194 196 201 204 205 207 213 212 211 216 214 208 202 202 217 223 223 230 225 205 195 204 222 229 228 226 224 219 217 216 210 210 209 205 203 197 188 188 194 210 221 227 239 245 230 198 190 193 190 223 269 266 271
195 196 200 202 194 185 187 192 194 195 196 200 207 208 206 209 211 213 217 209 193 199 212 222 229 217 215 246 220 199 209 216 217 228 235 235 229 223 220 216 218 219 213 210 207 202 195 190 193 190 190 207 215 205 199 200 206 209 232 285 250 246
196 198 199 198 190 185 191 195 195 196 196 196 200 202 201 207 213 212 210 199 188 205 218 223 223 177 109 288 259 216 216 222 221 234 243 239 226 219 219 217 217 217 210 207 211 214 205 197 198 193 185 179 170 171 189 201 211 212 217 311 235 234
197 199 197 194 188 186 193 196 196 194 194 197 198 200 204 208 210 205 199 195 197 211 220 224 214 161 156 225 243 221 220 230 226 235 242 234 221 215 215 214 212 209 201 196 197 202 203 204 207 206 201 197 190 189 197 203 204 195 190 192 151 321
200 199 197 192 188 188 194 196 196 195 197 203 204 206 213 213 206 200 196 196 202 213 221 226 222 191 184 208 232 220 219 232 228 230 235 227 218 215 213 209 201 195 192 189 187 190 195 200 204 206 207 209 207 207 212 212 204 196 195 189 163 151
200 198 194 191 189 191 195 195 195 198 201 206 209 212 216 214 205 201 199 197 202 213 221 221 223 223 210 207 231 225 217 229 231 228 229 222 215 213 208 203 196 189 188 187 189 190 192 196 197 198 202 207 209 207 211 209 199 201 203 192 186 184
201 198 194 191 191 192 195 195 196 199 202 207 211 213 216 214 207 205 202 198 205 215 219 216 217 231 224 202 226 232 218 226 230 224 221 214 209 207 200 196 191 186 185 184 188 188 189 194 193 194 198 199 200 195 193 195 191 197 197 189 195 192
199 196 193 191 192 191 193 195 196 199 202 208 212 213 216 216 210 208 202 199 206 211 212 214 215 226 218 191 212 231 223 223 221 214 212 208 205 202 196 192 187 184 185 183 185 184 183 188 189 193 193 188 188 183 177 179 179 182 175 162 160 156
194 193 192 190 190 190 192 194 195 198 203 207 209 211 217 216 209 207 202 200 203 200 203 206 201 216 211 193 206 225 217 210 206 204 204 202 202 199 193 189 185 185 185 183 184 182 180 185 186 186 184 177 173 168 168 170 166 164 156 147 138 123
189 192 192 189 189 191 193 194 196 200 203 205 207 209 213 210 204 202 196 196 194 189 199 197 189 213 219 202 207 212 200 196 196 198 199 198 196 193 189 187 185 186 187 186 186 183 182 183 182 180 175 170 165 161 161 156 151 156 151 139 124 107